Location: Amsterdam
(30.7274°N, 84.4357°W)
Time: 07:21:45
(UTC+00:00)

BlueWalker 3 - Pass Details

Date: 20 January 2026
Orbit: 450 x 461 km, 53.2° (Epoch: 11 February)

Event Time Altitude Azimuth Distance (km) Brightness Sun altitude
Rises 00:43:01 0° 247° (WSW) 2,444 6.9 -21.5°
Reaches altitude 10° 00:45:24 10° 261° (W) 1,574 5.6 -22.0°
Maximum altitude 00:48:23 25° 319° (NW) 939 3.6 -22.6°
Enters shadow 00:49:00 24° 336° (NNW) 974 3.5 -22.7°
